Location: Saluda
(35.2377°N, 82.3468°W)
Time: 13:47:38
(UTC+00:00)

SR - Pass Details

Date: 13 October 2022
Orbit: 577 x 875 km, 66.7° (Epoch: 28 November)

Event Time Altitude Azimuth Distance (km) Brightness Sun altitude
Rises 08:41:55 0° 337° (NNW) 3,251 - -35.6°
Reaches altitude 10° 08:44:28 10° 341° (NNW) 2,272 - -35.1°
Maximum altitude 08:49:33 57° 60° (ENE) 825 - -34.1°
Exits shadow 08:54:02 11° 139° (SE) 2,019 ? -33.2°
Drops below altitude 10° 08:54:10 10° 139° (SE) 2,067 ? -33.2°
Sets 08:56:23 0° 144° (SE) 2,932 ? -32.7°
